CZ-4B R/B, 33410

Orbit data source: Space-Track

CZ-4B R/B, 33410 is space debris in SSO originally from a launch on Sat, 25 Oct 2008 UTC launched from the Taiyaun Space Center, China (TSC). Debris objects in space refer to the collection of defunct objects orbiting the Earth. Examples of debris include non-operational satellites, rocket bodies, and fragments generated from explosions, collisions, or faulty payload assembly.

Loading next visibility...
Identifier
33410, 2008-053C
Orbit
SSO
Country
Flag of CNCN / PRC
Related business
Manufacturer
SAST
Mission
Spacecraft
Bus & Motor
CZ-4 STAGE 3, Unknown motor
Mass
~1,000 kg wet, ~1,000 kg dry
Launch date (UTC)
2008-10-25 (18 years ago)
Launch vehicle
Unknown
Launch site
Taiyaun Space Center, China (TSC)
Object type
Payload
Rocket body
Debris
Shape & HBR
Cyl, 2.5 m
Radar Cross Section
14.536 m², Large (>1 m²)

Expand to show TLE details & history
Last TLE update: 2 days ago

TLE from 2 days ago
0 CZ-4B R/B
1 33410U 08053C   26171.23351792  .00003978  00000-0  16135-3 0  9992
2 33410  97.7783 239.2911 0083656 245.1913 114.0604 15.22073342965098
Epoch: 2026-06-20T05:36Z
TLE epoch observation values (Epoch: 2026-06-20T05:36:15.948Z)
Latitude
-0°
Longitude
-113.22643°
Altitude
526.532 km
Speed
7.587 km/s
True Right ascension
15h 57m 09s
True Declination
0° 00' 00"
Sunlit
Object was in full shadow at epoch
Visualization orbit readout
Latitude
Unknown
Longitude
Unknown
Altitude
Unknown
Speed
Unknown
Apparent Right ascension
Unknown
Apparent Declination
Unknown
Sunlit
N/A
Visualization observer readout
Local Sidereal Time
23:08:29
Azimuth
Unknown
Elevation
Unknown
Doppler factor
Unknown
Orbital elements
Apogee altitude
554.078 km
Perigee altitude
439.056 km
Semi-major axis
6,874.704 km
Eccentricity
0.00837
Inclination
97.7783°
RAAN
239.2911°
Arg. of periapsis
245.1913°
True anomaly
114.93199°
Mean anomaly
114.0604°
Eccentric anomaly
114.49657°
Mean motion
3.8077 °/min
Orbital period
94.55 mins
BSTAR
0.00016135
Loading maneuver chart data...
Computing Atmospheric mass density...
Loading historical data...
Loading historical data...
Loading historical data...
Loading historical data...
Loading historical data...
Loading historical data...
Loading historical data...

Documentation

Showing up to 5 results
|